Weather History for Chrysopouli, Greece

Change the Weather History Date:

Monday, December 31, 2012

  Actual Average Record
Temperature  
Mean Temperature 40 °F -  
Max Temperature 48 °F 48 °F 57 °F (2000)
Min Temperature 32 °F 35 °F 24 °F (2008)
Degree Days  
Heating Degree Days 25    
Moisture  
Dew Point 36 °F    
Average Humidity 79    
Maximum Humidity 93    
Minimum Humidity 66    
Precipitation  
Precipitation 0.00 in - - ()
Sea Level Pressure  
Sea Level Pressure 30.21 in    
Wind  
Wind Speed 1 mph ()    
Max Wind Speed 6 mph    
Max Gust Speed -    
Visibility 6.2 miles    
Events      
Averages and records for this station are not official NWS values.
T = Trace of Precipitation, MM = Missing Value Source: Averaged Metar Reports

Daily Weather History Graph

Daily Weather History Graph

Search for Another Location

Airport:

Trip Planner

Search our weather history database for the weather conditions in past years. The results will help you decide how hot, cold, wet, or windy it might be!

Date:

Astronomy

Dec. 31, 2012 Rise Set
Actual Time 7:46 AM EET 5:03 PM EET
Civil Twilight 7:15 AM EET 5:34 PM EET
Nautical Twilight 6:40 AM EET 6:08 PM EET
Astronomical Twilight 6:07 AM EET 6:42 PM EET
Moon 8:16 PM EET (12/31) 9:16 AM EET (12/31)
Length of Visible Light 10h 19m
Length of Day
9h 17m
Waning Gibbous, 92% of the Moon is Illuminated
Dec 31
Waning Gibbous
Jan 5
Last Quarter
Jan 11
New
Jan 19
First Quarter
Jan 27
Full

Hourly Weather History & Observations

Time (EET) Temp. Windchill Dew Point Humidity Pressure Visibility Wind Dir Wind Speed Gust Speed Precip Events Conditions
6:50 AM 32.0 °F - 30.2 °F 93% 30.21 in - Calm Calm - N/A   Clear
7:20 AM 32.0 °F - 30.2 °F 93% 30.21 in - Calm Calm - N/A   Clear
7:50 AM 32.0 °F - 30.2 °F 93% 30.21 in - Calm Calm - N/A   Clear
8:20 AM 32.0 °F - 30.2 °F 93% 30.21 in 6.2 mi Calm Calm - N/A   Mostly Cloudy
8:50 AM 33.8 °F 29.6 °F 32.0 °F 93% 30.24 in 6.2 mi ENE 4.6 mph - N/A   Mostly Cloudy
9:20 AM 33.8 °F - 32.0 °F 93% 30.24 in 6.2 mi Calm Calm - N/A   Mostly Cloudy
9:50 AM 37.4 °F 33.8 °F 33.8 °F 87% 30.24 in 6.2 mi ENE 4.6 mph - N/A   Mostly Cloudy
10:20 AM 37.4 °F 33.8 °F 33.8 °F 87% 30.24 in 6.2 mi East 4.6 mph - N/A   Mostly Cloudy
10:50 AM 41.0 °F 37.1 °F 33.8 °F 76% 30.27 in 6.2 mi ENE 5.8 mph - N/A   Mostly Cloudy
11:20 AM 41.0 °F 38.0 °F 33.8 °F 76% 30.27 in 6.2 mi NE 4.6 mph - N/A   Mostly Cloudy
11:50 AM 44.6 °F 42.2 °F 37.4 °F 76% 30.24 in 6.2 mi Variable 4.6 mph - N/A   Mostly Cloudy
12:20 PM 46.4 °F 44.3 °F 37.4 °F 71% 30.24 in 6.2 mi Variable 4.6 mph - N/A   Mostly Cloudy
12:50 PM 46.4 °F - 37.4 °F 71% 30.21 in 6.2 mi Calm Calm - N/A   Mostly Cloudy
1:20 PM 46.4 °F - 37.4 °F 71% 30.21 in 6.2 mi Calm Calm - N/A   Mostly Cloudy
1:50 PM 46.4 °F - 35.6 °F 66% 30.21 in 6.2 mi Calm Calm - N/A   Mostly Cloudy
2:20 PM 46.4 °F - 35.6 °F 66% 30.21 in 6.2 mi Calm Calm - N/A   Mostly Cloudy
2:50 PM 48.2 °F - 37.4 °F 66% 30.21 in 6.2 mi Calm Calm - N/A   Mostly Cloudy
3:20 PM 48.2 °F - 37.4 °F 66% 30.21 in 6.2 mi Calm Calm - N/A   Mostly Cloudy
3:50 PM 48.2 °F - 39.2 °F 71% 30.21 in 6.2 mi Calm Calm - N/A   Mostly Cloudy
4:20 PM 48.2 °F - 39.2 °F 71% 30.21 in 6.2 mi Calm Calm - N/A   Mostly Cloudy
4:50 PM 46.4 °F - 39.2 °F 76% 30.18 in 6.2 mi Calm Calm - N/A   Mostly Cloudy
5:20 PM 46.4 °F - 39.2 °F 76% 30.18 in 6.2 mi Calm Calm - N/A   Mostly Cloudy
5:50 PM 44.6 °F - 39.2 °F 81% 30.18 in 6.2 mi Calm Calm - N/A   Mostly Cloudy
6:20 PM 44.6 °F - 39.2 °F 81% 30.18 in 6.2 mi Calm Calm - N/A   Mostly Cloudy
6:50 PM 42.8 °F - 37.4 °F 81% 30.18 in 6.2 mi Calm Calm - N/A   Mostly Cloudy
7:20 PM 42.8 °F 40.1 °F 37.4 °F 81% 30.18 in 6.2 mi North 4.6 mph - N/A   Mostly Cloudy
7:50 PM 41.0 °F - 37.4 °F 87% 30.21 in 6.2 mi Calm Calm - N/A   Mostly Cloudy